sat.trackr.live / text

‹ back to catalog

UNKNOWN

NORAD 85106

UNKNOWN UNKNOWN UNKNOWN

§ Identity

Operator
Country
Launch date
Launch site
Launch vehicle
Mass (kg)
RCS (m²)

External: N2YO · Heavens-Above

§ Orbital elements

Epoch: 2026-05-23T01:26:11.236128Z

Period
104.87 min
Inclination
100.0609°
Eccentricity
0.0008757
Mean motion
13.73122498 rev/d
Perigee alt
981.9 km
Apogee alt
994.8 km
Semi-major
7,366.5 km
B*
5.2098e-4
RAAN
256.8865°
Arg perigee
324.3159°
Mean anomaly
214.6219°
Rev number
62,520

§ Raw data

UNKNOWN1 85106U          26143.05985227  .00000433  00000+0  52098-3 0  99902 85106 100.0609 256.8865 0008757 324.3159 214.6219 13.73122498625202

JSON: /api/v1/satellites/85106 · /tle

For live sub-satellite position, see the globe view (requires WebGL).

§ Visibility from observer

Set your observer location to see the next 7 days of passes ≥ 10°. The values pass through the URL so the page stays shareable.

No JS? Fill the form by hand. The geolocation button needs JavaScript.